Clear Lake, IA

11:04 AM CST on December 10, 2016 (GMT -0600)
Mason City Municipal

Weather History for KMCW - May, 2013

Change the Weather History Date:

Sunday, May 5, 2013

  Actual Average Record
Temperature  
Mean Temperature 49 °F 55 °F  
Max Temperature 60 °F 67 °F 91 °F (1924)
Min Temperature 37 °F 43 °F 24 °F (1900)
Degree Days  
Heating Degree Days 16 11  
Month to date heating degree days 129 57  
Since 1 July heating degree days 7621 7457  
Cooling Degree Days 0 0  
Month to date cooling degree days 0 0  
Year to date cooling degree days 0 5  
Moisture  
Dew Point 42 °F    
Average Humidity 80    
Maximum Humidity 93    
Minimum Humidity 67    
Precipitation  
Precipitation 0.00 in 0.14 in 1.40 in (1982)
Month to date precipitation 1.43 0.71  
Year to date precipitation 14.74 8.51  
Snow  
Snow 0.00 in 0.00 in 2.00 in (1944)
Month to date snowfall 9.5 0.1  
Since 1 July snowfall 56.0 41.3  
Snow Depth 0.00 in    
Sea Level Pressure  
Sea Level Pressure 30.12 in    
Wind  
Wind Speed 9 mph (NNW)    
Max Wind Speed 15 mph    
Max Gust Speed 18 mph    
Visibility 9 miles    
Events      
T = Trace of Precipitation, MM = Missing Value Source: NWS Daily Summary

Daily Weather History Graph

Daily Weather History Graph

Search for Another Location

Airport or City:

Trip Planner

Search our weather history database for the weather conditions in past years. The results will help you decide how hot, cold, wet, or windy it might be!

Date:

Astronomy

May. 05, 2013 Rise Set
Actual Time 6:01 AM CDT 8:19 PM CDT
Civil Twilight 5:29 AM CDT 8:51 PM CDT
Nautical Twilight 4:50 AM CDT 9:30 PM CDT
Astronomical Twilight 4:06 AM CDT 10:14 PM CDT
Moon 3:38 AM CDT (5/5) 4:13 PM CDT (5/5)
Length of Visible Light 15h 21m
Length of Day
14h 18m
Waning Crescent, 18% of the Moon is Illuminated
May 5
Waning Crescent
May 9
New
May 17
First Quarter
May 24
Full
May 31
Last Quarter

Hourly Weather History & Observations

Time (CDT) Temp. Windchill Dew Point Humidity Pressure Visibility Wind Dir Wind Speed Gust Speed Precip Events Conditions
12:53 AM 39.0 °F 32.8 °F 36.0 °F 89% 30.13 in 8.0 mi NNW 9.2 mph - N/A   Mostly Cloudy
1:53 AM 37.9 °F 32.1 °F 35.1 °F 89% 30.12 in 7.0 mi NNW 8.1 mph - N/A   Overcast
2:53 AM 37.9 °F 32.7 °F 35.1 °F 89% 30.12 in 8.0 mi North 6.9 mph - N/A   Overcast
3:53 AM 37.0 °F 31.6 °F 35.1 °F 93% 30.12 in 9.0 mi North 6.9 mph - N/A   Overcast
4:53 AM 37.0 °F 31.0 °F 34.0 °F 89% 30.12 in 10.0 mi North 8.1 mph - N/A   Overcast
5:53 AM 37.0 °F 30.4 °F 34.0 °F 89% 30.13 in 9.0 mi North 9.2 mph - N/A   Partly Cloudy
6:53 AM 37.0 °F 30.4 °F 35.1 °F 93% 30.14 in 8.0 mi North 9.2 mph - N/A   Overcast
7:53 AM 39.0 °F 32.8 °F 36.0 °F 89% 30.14 in 9.0 mi North 9.2 mph - N/A   Mostly Cloudy
8:53 AM 41.0 °F 34.7 °F 37.0 °F 86% 30.15 in 10.0 mi North 10.4 mph - N/A   Clear
9:39 AM 42.8 °F 36.6 °F 37.4 °F 81% 30.14 in 10.0 mi North 11.5 mph - N/A   Partly Cloudy
9:53 AM 43.0 °F 37.2 °F 37.9 °F 82% 30.15 in 10.0 mi North 10.4 mph - N/A   Partly Cloudy
10:53 AM 46.0 °F 41.4 °F 39.0 °F 76% 30.15 in 10.0 mi North 9.2 mph - N/A   Mostly Cloudy
11:24 AM 48.2 °F - 41.0 °F 76% 30.14 in 10.0 mi North 8.1 mph - N/A   Mostly Cloudy
11:53 AM 48.9 °F - 42.1 °F 77% 30.15 in 10.0 mi NNW 11.5 mph - N/A   Scattered Clouds
12:53 PM 51.8 °F - 44.6 °F 76% 30.12 in 10.0 mi North 13.8 mph - N/A   Clear
1:53 PM 55.0 °F - 46.0 °F 72% 30.12 in 10.0 mi NNW 12.7 mph - N/A   Partly Cloudy
2:53 PM 55.9 °F - 46.9 °F 72% 30.10 in 10.0 mi North 12.7 mph - N/A   Clear
3:53 PM 59.0 °F - 48.9 °F 69% 30.09 in 10.0 mi NNW 11.5 mph - N/A   Clear
4:53 PM 59.0 °F - 50.0 °F 72% 30.08 in 10.0 mi NNW 11.5 mph - N/A   Clear
5:53 PM 60.1 °F - 50.0 °F 69% 30.07 in 10.0 mi NNW 11.5 mph - N/A   Clear
6:53 PM 57.9 °F - 51.1 °F 78% 30.09 in 10.0 mi NNW 10.4 mph - N/A   Clear
7:53 PM 57.0 °F - 50.0 °F 77% 30.09 in 10.0 mi North 8.1 mph - N/A   Clear
8:53 PM 53.1 °F - 48.9 °F 86% 30.09 in 10.0 mi NW 5.8 mph - N/A   Clear
9:53 PM 50.0 °F - 46.9 °F 89% 30.10 in 9.0 mi NNW 5.8 mph - N/A   Clear
10:53 PM 48.9 °F - 46.0 °F 90% 30.10 in 7.0 mi WNW 6.9 mph - N/A   Clear
11:53 PM 48.0 °F - 46.0 °F 93% 30.09 in 6.0 mi NW 8.1 mph - N/A   Clear